THY369 UZTT-LTFM

Flight info

Callsign THY369
Flight time 4h 19m
Altitude 40000
Route DIBAD2C DIBAD N193 OGOLI T898 DARVA/N0488F400 B476 METKA L88 NIJAT N644 BADIR DCT BAGEM DCT AGISO DCT LU N37 SARPI UM10 HAKAN UN644 GUMRU T315 NUGBA
Aircraft A359/H-SDE2E3GHIJ3J4J5LM1ORWXY/LB1D1

Departure

Time 2026-05-07 15:05
Airport Tashkent International Airport (UZTT)

Arrival

Time 2026-05-07 19:24
Airport İstanbul Airport (LTFM)
Time Latitude Longitude Altitude Speed Heading
2026-05-07 14:44 41.26171 69.27351 1403 ft 0 kts 330°
2026-05-07 14:59 41.26176 69.27347 1413 ft 2 kts 330°
2026-05-07 14:59 41.26200 69.27331 1403 ft 2 kts 335°
2026-05-07 15:00 41.26213 69.27332 1403 ft 1 kts 17°
2026-05-07 15:00 41.26215 69.27348 1403 ft 4 kts 88°
2026-05-07 15:00 41.26199 69.27440 1408 ft 17 kts 107°
2026-05-07 15:00 41.26157 69.27603 1406 ft 15 kts 89°
2026-05-07 15:01 41.26142 69.27750 1410 ft 18 kts 112°
2026-05-07 15:01 41.26141 69.27932 1411 ft 23 kts 82°
2026-05-07 15:01 41.26165 69.28161 1412 ft 27 kts 82°
2026-05-07 15:01 41.26189 69.28423 1412 ft 29 kts 90°
2026-05-07 15:02 41.26168 69.28681 1413 ft 27 kts 116°
2026-05-07 15:02 41.26044 69.28851 1420 ft 26 kts 138°
2026-05-07 15:02 41.25917 69.28938 1422 ft 23 kts 167°
2026-05-07 15:02 41.25756 69.28937 1414 ft 23 kts 134°
2026-05-07 15:03 41.25756 69.29089 1407 ft 20 kts 80°
2026-05-07 15:03 41.25787 69.29353 1415 ft 39 kts 81°
2026-05-07 15:03 41.25828 69.29709 1412 ft 34 kts 81°
2026-05-07 15:03 41.25869 69.30071 1411 ft 41 kts 81°
2026-05-07 15:04 41.25906 69.30342 1399 ft 28 kts 72°
2026-05-07 15:04 41.25971 69.30402 1406 ft 9 kts 351°
2026-05-07 15:04 41.26043 69.30377 1423 ft 14 kts 337°
2026-05-07 15:04 41.26079 69.30208 1427 ft 30 kts 261°
2026-05-07 15:05 41.26028 69.29766 1428 ft 76 kts 261°
2026-05-07 15:05 41.25919 69.28791 1423 ft 135 kts 261°
2026-05-07 15:05 41.25760 69.27340 1537 ft 170 kts 262°
2026-05-07 15:05 41.25565 69.25880 2363 ft 155 kts 260°
2026-05-07 15:06 41.25372 69.24543 3095 ft 140 kts 261°
2026-05-07 15:06 41.25229 69.23172 3366 ft 159 kts 264°
2026-05-07 15:06 41.25088 69.21624 3594 ft 180 kts 263°
2026-05-07 15:06 41.24918 69.19906 3843 ft 200 kts 263°
2026-05-07 15:07 41.24716 69.17960 4065 ft 225 kts 262°
2026-05-07 15:07 41.24488 69.15834 4553 ft 237 kts 262°
2026-05-07 15:07 41.24247 69.13650 5199 ft 241 kts 262°
2026-05-07 15:07 41.24001 69.11428 5836 ft 246 kts 262°
2026-05-07 15:08 41.23751 69.09163 6531 ft 248 kts 262°
2026-05-07 15:08 41.23495 69.06861 7100 ft 258 kts 262°
2026-05-07 15:08 41.23210 69.04406 7352 ft 279 kts 262°
2026-05-07 15:08 41.23002 69.01814 7470 ft 290 kts 270°
2026-05-07 15:09 41.23057 68.99123 8120 ft 293 kts 273°
2026-05-07 15:09 41.23167 68.96420 8878 ft 294 kts 274°
2026-05-07 15:09 41.23295 68.93695 9556 ft 297 kts 274°
2026-05-07 15:09 41.23433 68.90950 10241 ft 301 kts 274°
2026-05-07 15:10 41.23582 68.88105 10614 ft 317 kts 274°
2026-05-07 15:10 41.23742 68.85104 10949 ft 334 kts 274°
2026-05-07 15:10 41.23910 68.81949 11259 ft 350 kts 274°
2026-05-07 15:10 41.24085 68.78660 11606 ft 363 kts 274°
2026-05-07 15:11 41.24262 68.75287 12140 ft 369 kts 274°
2026-05-07 15:11 41.24444 68.71865 12826 ft 371 kts 274°
2026-05-07 15:11 41.24625 68.68436 13482 ft 374 kts 274°
2026-05-07 15:11 41.24807 68.64976 14139 ft 376 kts 274°
2026-05-07 15:12 41.24989 68.61500 14756 ft 379 kts 274°
2026-05-07 15:12 41.25172 68.57987 15364 ft 382 kts 274°
2026-05-07 15:12 41.25354 68.54450 15989 ft 385 kts 274°
2026-05-07 15:12 41.25537 68.50894 16619 ft 387 kts 274°
2026-05-07 15:13 41.25717 68.47354 17261 ft 389 kts 274°
2026-05-07 15:13 41.25900 68.43750 17890 ft 393 kts 274°
2026-05-07 15:13 41.26085 68.40069 18548 ft 395 kts 274°
2026-05-07 15:13 41.26266 68.36465 19169 ft 398 kts 274°
2026-05-07 15:14 41.26449 68.32770 19706 ft 401 kts 274°
2026-05-07 15:14 41.26632 68.29066 19938 ft 402 kts 274°
2026-05-07 15:14 41.26814 68.25355 19976 ft 403 kts 274°
2026-05-07 15:14 41.26996 68.21631 19971 ft 404 kts 274°
2026-05-07 15:15 41.27177 68.17899 19969 ft 404 kts 274°
2026-05-07 15:15 41.27357 68.14169 19969 ft 404 kts 274°
2026-05-07 15:15 41.27533 68.10443 19970 ft 404 kts 274°
2026-05-07 15:15 41.27710 68.06718 19971 ft 404 kts 274°
2026-05-07 15:16 41.27886 68.02989 19976 ft 404 kts 274°
2026-05-07 15:16 41.28061 67.99261 19979 ft 403 kts 274°
2026-05-07 15:16 41.28235 67.95597 19975 ft 403 kts 274°
2026-05-07 15:16 41.28558 67.91898 19990 ft 404 kts 279°
2026-05-07 15:17 41.29049 67.88205 20351 ft 406 kts 281°
2026-05-07 15:17 41.29618 67.84521 21005 ft 408 kts 282°
2026-05-07 15:17 41.30218 67.80822 21597 ft 411 kts 282°
2026-05-07 15:17 41.30827 67.77094 22182 ft 414 kts 282°
2026-05-07 15:18 41.31435 67.73336 22752 ft 417 kts 282°
2026-05-07 15:18 41.32037 67.69548 23326 ft 420 kts 282°
2026-05-07 15:18 41.32636 67.65723 23873 ft 423 kts 282°
2026-05-07 15:18 41.33230 67.61880 24426 ft 426 kts 282°
2026-05-07 15:19 41.33827 67.57995 24961 ft 429 kts 282°
2026-05-07 15:19 41.34424 67.54086 25483 ft 432 kts 281°
2026-05-07 15:19 41.35016 67.50205 25985 ft 435 kts 281°
2026-05-07 15:19 41.35620 67.46244 26472 ft 438 kts 281°
2026-05-07 15:20 41.36227 67.42254 26986 ft 441 kts 281°
2026-05-07 15:20 41.36836 67.38243 27448 ft 443 kts 281°
2026-05-07 15:20 41.37446 67.34211 27947 ft 446 kts 281°
2026-05-07 15:20 41.38059 67.30153 28392 ft 449 kts 281°
2026-05-07 15:21 41.38675 67.26065 28836 ft 451 kts 281°
2026-05-07 15:21 41.39293 67.21954 29295 ft 453 kts 281°
2026-05-07 15:21 41.39912 67.17827 29733 ft 455 kts 281°
2026-05-07 15:21 41.40531 67.13682 30149 ft 457 kts 281°
2026-05-07 15:22 41.41154 67.09503 30517 ft 460 kts 281°
2026-05-07 15:22 41.41777 67.05315 30858 ft 462 kts 281°
2026-05-07 15:22 41.42401 67.01112 31253 ft 463 kts 280°
2026-05-07 15:22 41.43018 66.96942 31587 ft 465 kts 280°
2026-05-07 15:23 41.43646 66.92691 31878 ft 468 kts 280°
2026-05-07 15:23 41.44273 66.88424 32199 ft 469 kts 280°
2026-05-07 15:23 41.44898 66.84168 32649 ft 467 kts 280°
2026-05-07 15:23 41.45520 66.79925 33108 ft 465 kts 280°
2026-05-07 15:24 41.46138 66.75697 33479 ft 464 kts 280°
2026-05-07 15:24 41.46752 66.71482 33879 ft 462 kts 279°
2026-05-07 15:24 41.47360 66.67290 34304 ft 460 kts 279°
2026-05-07 15:24 41.47935 66.63097 34637 ft 459 kts 277°
2026-05-07 15:25 41.48214 66.58867 34937 ft 458 kts 271°
2026-05-07 15:25 41.48284 66.56057 35159 ft 457 kts 271°
2026-05-07 15:25 41.48350 66.50400 35558 ft 456 kts 270°
2026-05-07 15:25 41.48361 66.46159 35801 ft 457 kts 269°
2026-05-07 15:26 41.48360 66.43348 35971 ft 457 kts 269°
2026-05-07 15:26 41.48355 66.37688 36354 ft 456 kts 269°
2026-05-07 15:26 41.48352 66.33456 36606 ft 456 kts 269°
2026-05-07 15:26 41.48351 66.30661 36757 ft 456 kts 269°
2026-05-07 15:27 41.48349 66.25013 37126 ft 454 kts 269°
2026-05-07 15:27 41.48349 66.20869 37445 ft 451 kts 269°
2026-05-07 15:27 41.48347 66.16706 37742 ft 449 kts 269°
2026-05-07 15:27 41.48344 66.12536 37963 ft 448 kts 269°
2026-05-07 15:28 41.48341 66.08369 38164 ft 448 kts 269°
2026-05-07 15:28 41.48335 66.04212 38326 ft 449 kts 269°
2026-05-07 15:28 41.48328 66.00036 38459 ft 450 kts 269°
2026-05-07 15:28 41.48320 65.95866 38628 ft 450 kts 269°
2026-05-07 15:29 41.48309 65.91697 38830 ft 449 kts 269°
2026-05-07 15:29 41.48298 65.87529 38936 ft 450 kts 269°
2026-05-07 15:29 41.48271 65.79176 38943 ft 450 kts 269°
2026-05-07 15:30 41.48213 65.70820 38942 ft 450 kts 268°
2026-05-07 15:30 41.48107 65.62481 38943 ft 450 kts 268°
2026-05-07 15:31 41.47996 65.54143 38941 ft 450 kts 268°
2026-05-07 15:31 41.47905 65.47199 38933 ft 450 kts 268°
2026-05-07 15:32 41.47780 65.37507 38932 ft 449 kts 268°
2026-05-07 15:32 41.47665 65.29182 38933 ft 449 kts 268°
2026-05-07 15:33 41.47543 65.20845 38936 ft 449 kts 268°
2026-05-07 15:33 41.47414 65.12527 38918 ft 449 kts 268°
2026-05-07 15:34 41.47303 65.05611 38898 ft 448 kts 268°
2026-05-07 15:34 41.47165 64.97302 38896 ft 448 kts 268°
2026-05-07 15:35 41.47021 64.89002 38897 ft 448 kts 268°
2026-05-07 15:35 41.46870 64.80701 38898 ft 447 kts 268°
2026-05-07 15:36 41.46714 64.72414 38896 ft 447 kts 268°
2026-05-07 15:36 41.46553 64.64179 38898 ft 447 kts 268°
2026-05-07 15:37 41.46385 64.55896 38896 ft 447 kts 268°
2026-05-07 15:37 41.46211 64.47619 38897 ft 446 kts 267°
2026-05-07 15:38 41.46031 64.39355 38904 ft 445 kts 267°
2026-05-07 15:38 41.45847 64.31104 38908 ft 445 kts 267°
2026-05-07 15:39 41.45654 64.22835 38906 ft 445 kts 267°
2026-05-07 15:39 41.45457 64.14582 38906 ft 445 kts 267°
2026-05-07 15:40 41.45255 64.06379 38904 ft 445 kts 267°
2026-05-07 15:40 41.45045 63.98125 38880 ft 445 kts 267°
2026-05-07 15:41 41.44831 63.89889 38881 ft 444 kts 267°
2026-05-07 15:41 41.44612 63.81662 38888 ft 444 kts 267°
2026-05-07 15:42 41.44387 63.73439 38887 ft 444 kts 267°
2026-05-07 15:42 41.44155 63.65206 38888 ft 444 kts 267°
2026-05-07 15:43 41.43913 63.57040 38890 ft 443 kts 266°
2026-05-07 15:43 41.43651 63.48829 38895 ft 443 kts 266°
2026-05-07 15:44 41.43387 63.40625 38902 ft 443 kts 266°
2026-05-07 15:44 41.43119 63.32423 38907 ft 442 kts 266°
2026-05-07 15:45 41.42847 63.24238 38908 ft 442 kts 266°
2026-05-07 15:45 41.42570 63.16057 38914 ft 442 kts 266°
2026-05-07 15:46 41.42143 63.03799 38927 ft 441 kts 266°
2026-05-07 15:47 41.41853 62.95677 38930 ft 441 kts 266°
2026-05-07 15:47 41.41556 62.87516 38932 ft 441 kts 266°
2026-05-07 15:48 41.41254 62.79360 38933 ft 440 kts 266°
2026-05-07 15:48 41.40946 62.71214 38934 ft 440 kts 266°
2026-05-07 15:49 41.40632 62.63079 38931 ft 440 kts 265°
2026-05-07 15:49 41.40312 62.54946 38935 ft 439 kts 265°
2026-05-07 15:50 41.39994 62.46865 38941 ft 439 kts 265°
2026-05-07 15:50 41.39691 62.38698 38936 ft 439 kts 265°
2026-05-07 15:51 41.39386 62.30575 38942 ft 439 kts 265°
2026-05-07 15:51 41.39076 62.22512 38943 ft 438 kts 265°
2026-05-07 15:52 41.38756 62.14409 38945 ft 438 kts 265°
2026-05-07 15:52 41.38430 62.06299 38945 ft 438 kts 265°
2026-05-07 15:53 41.38100 61.98198 38950 ft 438 kts 265°
2026-05-07 15:53 41.37763 61.90100 38952 ft 437 kts 265°
2026-05-07 15:54 41.37422 61.82023 38952 ft 437 kts 265°
2026-05-07 15:54 41.37076 61.73990 38961 ft 437 kts 265°
2026-05-07 15:55 41.36723 61.65909 38962 ft 437 kts 265°
2026-05-07 15:55 41.36365 61.57825 38962 ft 438 kts 265°
2026-05-07 15:56 41.36000 61.49735 38961 ft 438 kts 265°
2026-05-07 15:56 41.35634 61.41695 38962 ft 438 kts 265°
2026-05-07 15:57 41.35264 61.33608 38962 ft 438 kts 265°
2026-05-07 15:57 41.34883 61.25519 38962 ft 438 kts 265°
2026-05-07 15:58 41.34497 61.17431 38962 ft 438 kts 265°
2026-05-07 15:58 41.34107 61.09341 38962 ft 438 kts 264°
2026-05-07 15:59 41.33711 61.01250 38961 ft 438 kts 264°
2026-05-07 15:59 41.33309 60.93157 38961 ft 438 kts 264°
2026-05-07 16:00 41.32905 60.85113 38962 ft 439 kts 264°
2026-05-07 16:00 41.32490 60.77003 38963 ft 439 kts 264°
2026-05-07 16:01 41.32072 60.68905 38962 ft 439 kts 264°
2026-05-07 16:01 41.31647 60.60801 38967 ft 439 kts 264°
2026-05-07 16:02 41.31217 60.52690 38972 ft 439 kts 264°
2026-05-07 16:02 41.30805 60.44629 38968 ft 440 kts 266°
2026-05-07 16:03 41.30989 60.36483 38971 ft 441 kts 271°
2026-05-07 16:03 41.31376 60.28311 38971 ft 443 kts 271°
2026-05-07 16:04 41.31792 60.20140 38971 ft 443 kts 271°
2026-05-07 16:04 41.32198 60.11949 38981 ft 443 kts 271°
2026-05-07 16:05 41.32590 60.03769 38980 ft 443 kts 271°
2026-05-07 16:05 41.32990 59.95585 38980 ft 443 kts 271°
2026-05-07 16:06 41.33380 59.87407 38977 ft 443 kts 271°
2026-05-07 16:06 41.33764 59.79261 38990 ft 443 kts 271°
2026-05-07 16:07 41.34146 59.71081 38986 ft 443 kts 271°
2026-05-07 16:07 41.33964 59.62936 38992 ft 440 kts 262°
2026-05-07 16:08 41.33279 59.54860 38988 ft 439 kts 261°
2026-05-07 16:08 41.32510 59.46809 38990 ft 438 kts 261°
2026-05-07 16:09 41.31730 59.38761 39003 ft 438 kts 261°
2026-05-07 16:09 41.30958 59.30720 38992 ft 438 kts 261°
2026-05-07 16:10 41.30185 59.22682 39004 ft 438 kts 261°
2026-05-07 16:10 41.29409 59.14665 39003 ft 437 kts 261°
2026-05-07 16:11 41.28628 59.06653 39003 ft 437 kts 261°
2026-05-07 16:11 41.27845 58.98648 38992 ft 436 kts 261°
2026-05-07 16:12 41.27053 58.90653 39002 ft 436 kts 261°
2026-05-07 16:12 41.26263 58.82709 39002 ft 436 kts 261°
2026-05-07 16:13 41.25464 58.74730 38999 ft 436 kts 260°
2026-05-07 16:13 41.24657 58.66751 38996 ft 436 kts 260°
2026-05-07 16:14 41.23845 58.58779 38995 ft 436 kts 260°
2026-05-07 16:14 41.23029 58.50803 38993 ft 435 kts 260°
2026-05-07 16:15 41.22207 58.42831 38993 ft 435 kts 260°
2026-05-07 16:15 41.21377 58.34858 38996 ft 435 kts 260°
2026-05-07 16:16 41.20543 58.26895 39026 ft 435 kts 260°
2026-05-07 16:16 41.19704 58.18925 39019 ft 435 kts 260°
2026-05-07 16:17 41.18860 58.10958 39013 ft 436 kts 260°
2026-05-07 16:17 41.18013 58.02996 39015 ft 436 kts 260°
2026-05-07 16:18 41.17155 57.95035 39026 ft 435 kts 260°
2026-05-07 16:18 41.16299 57.87103 39028 ft 433 kts 259°
2026-05-07 16:19 41.15444 57.79233 39027 ft 433 kts 259°
2026-05-07 16:19 41.14576 57.71328 39026 ft 432 kts 259°
2026-05-07 16:20 41.13852 57.64763 39026 ft 432 kts 259°
2026-05-07 16:20 41.12979 57.56872 39025 ft 432 kts 259°
2026-05-07 16:21 41.12101 57.48997 39034 ft 431 kts 259°
2026-05-07 16:21 41.11218 57.41132 39035 ft 431 kts 259°
2026-05-07 16:22 41.10330 57.33263 39036 ft 431 kts 259°
2026-05-07 16:22 41.09437 57.25408 39027 ft 430 kts 259°
2026-05-07 16:23 41.08540 57.17567 39027 ft 430 kts 259°
2026-05-07 16:23 41.07639 57.09737 39027 ft 429 kts 259°
2026-05-07 16:24 41.06734 57.01909 39027 ft 429 kts 259°
2026-05-07 16:24 41.05831 56.94157 39027 ft 428 kts 259°
2026-05-07 16:25 41.04917 56.86360 39026 ft 428 kts 259°
2026-05-07 16:25 41.03998 56.78566 39027 ft 428 kts 259°
2026-05-07 16:26 41.03075 56.70779 39048 ft 428 kts 259°
2026-05-07 16:26 41.02148 56.62999 39045 ft 427 kts 259°
2026-05-07 16:27 41.01222 56.55275 39045 ft 427 kts 258°
2026-05-07 16:27 41.00662 56.47431 39045 ft 429 kts 265°
2026-05-07 16:28 41.00517 56.39526 39046 ft 430 kts 266°
2026-05-07 16:28 41.00435 56.31613 39054 ft 429 kts 266°
2026-05-07 16:29 41.00351 56.23715 39055 ft 429 kts 266°
2026-05-07 16:29 41.00253 56.15823 39064 ft 429 kts 265°
2026-05-07 16:30 41.00143 56.07937 39063 ft 428 kts 265°
2026-05-07 16:30 41.00026 56.00086 39062 ft 428 kts 265°
2026-05-07 16:31 40.99906 55.92205 39063 ft 428 kts 265°
2026-05-07 16:31 40.99780 55.84337 39072 ft 427 kts 265°
2026-05-07 16:32 40.99649 55.76477 39071 ft 427 kts 265°
2026-05-07 16:32 40.99522 55.68619 39071 ft 427 kts 265°
2026-05-07 16:33 40.99402 55.60774 39078 ft 427 kts 265°
2026-05-07 16:33 40.99274 55.52920 39079 ft 426 kts 265°
2026-05-07 16:34 40.99140 55.45122 39072 ft 427 kts 265°
2026-05-07 16:34 40.98997 55.37267 39064 ft 427 kts 265°
2026-05-07 16:35 40.98852 55.29417 39072 ft 426 kts 265°
2026-05-07 16:35 40.98698 55.21564 39079 ft 427 kts 265°
2026-05-07 16:36 40.98540 55.13708 39071 ft 427 kts 265°
2026-05-07 16:36 40.98378 55.05854 39073 ft 427 kts 265°
2026-05-07 16:37 40.98209 54.98001 39072 ft 427 kts 265°
2026-05-07 16:37 40.98038 54.90148 39072 ft 427 kts 265°
2026-05-07 16:38 40.97861 54.82298 39071 ft 427 kts 265°
2026-05-07 16:38 40.97665 54.74446 39078 ft 427 kts 264°
2026-05-07 16:39 40.97463 54.66650 39081 ft 427 kts 264°
2026-05-07 16:39 40.97260 54.58798 39078 ft 427 kts 265°
2026-05-07 16:40 40.97056 54.50947 39085 ft 427 kts 264°
2026-05-07 16:40 40.96842 54.43083 39084 ft 427 kts 264°
2026-05-07 16:41 40.96622 54.35240 39085 ft 427 kts 264°
2026-05-07 16:41 40.96399 54.27381 39084 ft 427 kts 264°
2026-05-07 16:42 40.96170 54.19531 39078 ft 427 kts 264°
2026-05-07 16:42 40.95936 54.11680 39078 ft 427 kts 264°
2026-05-07 16:43 40.95697 54.03874 39087 ft 427 kts 264°
2026-05-07 16:43 40.95453 53.96020 39091 ft 427 kts 264°
2026-05-07 16:44 40.95204 53.88168 39091 ft 427 kts 264°
2026-05-07 16:44 40.94947 53.80312 39091 ft 427 kts 264°
2026-05-07 16:45 40.94687 53.72459 39091 ft 427 kts 264°
2026-05-07 16:45 40.94420 53.64607 39091 ft 427 kts 264°
2026-05-07 16:46 40.94149 53.56759 39091 ft 427 kts 264°
2026-05-07 16:46 40.93873 53.48971 39091 ft 427 kts 264°
2026-05-07 16:47 40.93590 53.41115 39091 ft 427 kts 264°
2026-05-07 16:47 40.93303 53.33272 39091 ft 427 kts 264°
2026-05-07 16:48 40.93010 53.25416 39091 ft 427 kts 264°
2026-05-07 16:48 40.92712 53.17586 39092 ft 427 kts 264°
2026-05-07 16:49 40.92409 53.09745 39091 ft 427 kts 264°
2026-05-07 16:49 40.92093 53.01905 39091 ft 427 kts 263°
2026-05-07 16:50 40.91769 52.94125 39091 ft 427 kts 263°
2026-05-07 16:50 40.91440 52.86277 39091 ft 427 kts 263°
2026-05-07 16:51 40.91108 52.78450 39091 ft 427 kts 263°
2026-05-07 16:51 40.90770 52.70618 39091 ft 426 kts 263°
2026-05-07 16:52 40.90485 52.64118 39091 ft 426 kts 263°
2026-05-07 16:52 40.89465 52.55123 39091 ft 423 kts 257°
2026-05-07 16:53 40.88296 52.47503 39091 ft 423 kts 256°
2026-05-07 16:53 40.87093 52.39956 39091 ft 422 kts 256°
2026-05-07 16:54 40.85881 52.32359 39091 ft 422 kts 256°
2026-05-07 16:54 40.84674 52.24759 39091 ft 423 kts 256°
2026-05-07 16:55 40.83463 52.17162 39091 ft 422 kts 256°
2026-05-07 16:55 40.82247 52.09570 39091 ft 422 kts 256°
2026-05-07 16:56 40.81025 52.01989 39091 ft 422 kts 256°
2026-05-07 16:56 40.79187 51.90623 39091 ft 422 kts 256°
2026-05-07 16:57 40.77961 51.83081 39091 ft 422 kts 255°
2026-05-07 16:57 40.76724 51.75507 39090 ft 422 kts 255°
2026-05-07 16:58 40.75479 51.67929 39091 ft 422 kts 255°
2026-05-07 16:58 40.74233 51.60361 39092 ft 422 kts 255°
2026-05-07 16:59 40.72984 51.52781 39090 ft 423 kts 256°
2026-05-07 16:59 40.72314 51.45059 39091 ft 425 kts 263°
2026-05-07 17:00 40.71970 51.37264 39091 ft 426 kts 263°
2026-05-07 17:00 40.71676 51.29457 39091 ft 426 kts 263°
2026-05-07 17:01 40.71373 51.21691 39091 ft 427 kts 263°
2026-05-07 17:01 40.71051 51.13879 39091 ft 427 kts 263°
2026-05-07 17:02 40.70721 51.06059 39096 ft 427 kts 263°
2026-05-07 17:02 40.70385 50.98241 39101 ft 427 kts 263°
2026-05-07 17:03 40.70044 50.90415 39101 ft 427 kts 263°
2026-05-07 17:03 40.69699 50.82604 39100 ft 427 kts 263°
2026-05-07 17:04 40.69407 50.76104 39100 ft 428 kts 263°
2026-05-07 17:04 40.68990 50.66952 39101 ft 428 kts 263°
2026-05-07 17:05 40.68630 50.59170 39100 ft 428 kts 263°
2026-05-07 17:05 40.68265 50.51380 39101 ft 428 kts 263°
2026-05-07 17:06 40.68222 50.43478 39100 ft 433 kts 271°
2026-05-07 17:06 40.69381 50.35643 39100 ft 438 kts 278°
2026-05-07 17:07 40.70871 50.27846 39100 ft 438 kts 279°
2026-05-07 17:07 40.72148 50.21378 39100 ft 438 kts 279°
2026-05-07 17:08 40.73662 50.13591 39100 ft 438 kts 279°
2026-05-07 17:08 40.75152 50.05798 39101 ft 438 kts 278°
2026-05-07 17:09 40.76632 49.97997 39100 ft 438 kts 278°
2026-05-07 17:09 40.78110 49.90178 39101 ft 440 kts 278°
2026-05-07 17:10 40.79586 49.82338 39100 ft 441 kts 278°
2026-05-07 17:10 40.81060 49.74486 39100 ft 441 kts 278°
2026-05-07 17:11 40.82529 49.66626 39100 ft 441 kts 278°
2026-05-07 17:11 40.83995 49.58757 39100 ft 441 kts 278°
2026-05-07 17:12 40.85453 49.50882 39101 ft 441 kts 278°
2026-05-07 17:12 40.86899 49.43051 39100 ft 442 kts 278°
2026-05-07 17:13 40.88353 49.35146 39100 ft 443 kts 278°
2026-05-07 17:13 40.89759 49.27222 39100 ft 442 kts 277°
2026-05-07 17:14 40.91088 49.19281 39100 ft 443 kts 277°
2026-05-07 17:14 40.92415 49.11322 39099 ft 442 kts 277°
2026-05-07 17:15 40.93739 49.03416 39099 ft 443 kts 277°
2026-05-07 17:15 40.95073 48.95458 39112 ft 444 kts 277°
2026-05-07 17:16 40.96408 48.87474 39108 ft 444 kts 277°
2026-05-07 17:16 40.97735 48.79484 39110 ft 444 kts 277°
2026-05-07 17:17 40.99057 48.71490 39108 ft 445 kts 277°
2026-05-07 17:17 41.00376 48.63479 39117 ft 445 kts 277°
2026-05-07 17:18 41.01691 48.55465 39130 ft 445 kts 277°
2026-05-07 17:18 41.02998 48.47437 39140 ft 446 kts 277°
2026-05-07 17:19 41.04303 48.39404 39142 ft 446 kts 277°
2026-05-07 17:19 41.05604 48.31359 39137 ft 446 kts 277°
2026-05-07 17:20 41.06891 48.23358 39143 ft 448 kts 277°
2026-05-07 17:20 41.08183 48.15271 39139 ft 448 kts 277°
2026-05-07 17:21 41.09470 48.07188 39131 ft 448 kts 277°
2026-05-07 17:21 41.10754 47.99106 39142 ft 448 kts 277°
2026-05-07 17:22 41.12037 47.90999 39129 ft 449 kts 277°
2026-05-07 17:22 41.13304 47.82911 39142 ft 450 kts 277°
2026-05-07 17:23 41.14576 47.74770 39142 ft 450 kts 277°
2026-05-07 17:23 41.15843 47.66631 39125 ft 450 kts 277°
2026-05-07 17:24 41.17105 47.58477 39127 ft 451 kts 277°
2026-05-07 17:24 41.18354 47.50369 39137 ft 451 kts 277°
2026-05-07 17:25 41.19606 47.42202 39131 ft 451 kts 277°
2026-05-07 17:25 41.20856 47.34037 39139 ft 451 kts 277°
2026-05-07 17:26 41.22092 47.25873 39149 ft 451 kts 277°
2026-05-07 17:26 41.23328 47.17683 39148 ft 452 kts 277°
2026-05-07 17:27 41.24556 47.09500 39157 ft 451 kts 277°
2026-05-07 17:27 41.25781 47.01313 39164 ft 452 kts 277°
2026-05-07 17:28 41.26993 46.93171 39173 ft 452 kts 277°
2026-05-07 17:28 41.28207 46.84965 39174 ft 453 kts 277°
2026-05-07 17:29 41.29418 46.76738 39184 ft 453 kts 277°
2026-05-07 17:29 41.30611 46.68510 39182 ft 454 kts 276°
2026-05-07 17:30 41.31761 46.60252 39194 ft 454 kts 276°
2026-05-07 17:30 41.32904 46.51975 39193 ft 455 kts 276°
2026-05-07 17:31 41.34051 46.43684 39193 ft 456 kts 276°
2026-05-07 17:31 41.35191 46.35428 39184 ft 456 kts 276°
2026-05-07 17:32 41.36331 46.27114 39184 ft 457 kts 276°
2026-05-07 17:32 41.37467 46.18797 39183 ft 457 kts 276°
2026-05-07 17:33 41.38600 46.10458 39181 ft 457 kts 276°
2026-05-07 17:33 41.39725 46.02111 39173 ft 458 kts 276°
2026-05-07 17:34 41.40847 45.93752 39175 ft 459 kts 276°
2026-05-07 17:34 41.41966 45.85370 39167 ft 460 kts 276°
2026-05-07 17:35 41.43082 45.76972 39165 ft 460 kts 276°
2026-05-07 17:35 41.44187 45.68613 39166 ft 460 kts 276°
2026-05-07 17:36 41.45288 45.60216 39164 ft 460 kts 276°
2026-05-07 17:36 41.46382 45.51822 39159 ft 459 kts 276°
2026-05-07 17:37 41.47470 45.43425 39157 ft 460 kts 276°
2026-05-07 17:37 41.48553 45.35024 39158 ft 460 kts 276°
2026-05-07 17:38 41.49670 45.26637 39156 ft 460 kts 277°
2026-05-07 17:38 41.50797 45.18236 39160 ft 460 kts 277°
2026-05-07 17:39 41.51916 45.09817 39153 ft 460 kts 276°
2026-05-07 17:39 41.53027 45.01391 39158 ft 461 kts 276°
2026-05-07 17:40 41.54122 44.93015 39154 ft 461 kts 276°
2026-05-07 17:40 41.55220 44.84578 39155 ft 462 kts 276°
2026-05-07 17:41 41.56314 44.76111 39156 ft 463 kts 276°
2026-05-07 17:41 41.57401 44.67649 39155 ft 463 kts 276°
2026-05-07 17:42 41.58486 44.59163 39156 ft 464 kts 276°
2026-05-07 17:42 41.59563 44.50653 39163 ft 464 kts 276°
2026-05-07 17:43 41.60031 44.43533 39165 ft 462 kts 271°
2026-05-07 17:43 41.60353 44.34945 39164 ft 463 kts 270°
2026-05-07 17:44 41.60616 44.26332 39165 ft 464 kts 270°
2026-05-07 17:44 41.60919 44.16257 39175 ft 464 kts 270°
2026-05-07 17:45 41.61136 44.09086 39175 ft 465 kts 270°
2026-05-07 17:45 41.61437 43.98996 39187 ft 465 kts 270°
2026-05-07 17:46 41.61686 43.90403 39200 ft 466 kts 270°
2026-05-07 17:46 41.61931 43.81738 39207 ft 466 kts 270°
2026-05-07 17:47 41.62170 43.73074 39205 ft 466 kts 270°
2026-05-07 17:47 41.62401 43.64416 39205 ft 466 kts 270°
2026-05-07 17:48 41.62626 43.55758 39199 ft 466 kts 270°
2026-05-07 17:48 41.62840 43.47099 39198 ft 466 kts 269°
2026-05-07 17:49 41.62818 43.38497 39204 ft 465 kts 267°
2026-05-07 17:49 41.62689 43.29839 39197 ft 465 kts 267°
2026-05-07 17:50 41.62582 43.21189 39215 ft 465 kts 267°
2026-05-07 17:50 41.62497 43.12533 39203 ft 466 kts 267°
2026-05-07 17:51 41.62416 43.03863 39206 ft 467 kts 267°
2026-05-07 17:51 41.62330 42.95177 39202 ft 467 kts 267°
2026-05-07 17:52 41.62237 42.86547 39195 ft 468 kts 267°
2026-05-07 17:52 41.62136 42.77844 39190 ft 469 kts 267°
2026-05-07 17:53 41.62024 42.69124 39197 ft 469 kts 267°
2026-05-07 17:53 41.61904 42.60399 39188 ft 470 kts 267°
2026-05-07 17:54 41.61803 42.53116 39188 ft 471 kts 267°
2026-05-07 17:54 41.61679 42.44354 39203 ft 471 kts 268°
2026-05-07 17:55 41.61545 42.35589 39201 ft 472 kts 267°
2026-05-07 17:55 41.61404 42.26814 39201 ft 473 kts 268°
2026-05-07 17:56 41.61257 42.18075 39206 ft 474 kts 267°
2026-05-07 17:56 41.61101 42.09278 39199 ft 474 kts 267°
2026-05-07 17:57 41.60936 42.00474 39202 ft 474 kts 267°
2026-05-07 17:57 41.60766 41.91666 39209 ft 475 kts 267°
2026-05-07 17:58 41.60589 41.82837 39209 ft 475 kts 267°
2026-05-07 17:58 41.60408 41.74021 39216 ft 475 kts 267°
2026-05-07 17:59 41.60141 41.65206 39215 ft 474 kts 263°
2026-05-07 17:59 41.58582 41.56696 39215 ft 472 kts 249°
2026-05-07 18:00 41.56285 41.48478 39207 ft 473 kts 253°
2026-05-07 18:00 41.55316 41.39866 39208 ft 474 kts 270°
2026-05-07 18:01 41.55618 41.31070 39208 ft 475 kts 273°
2026-05-07 18:01 41.56149 41.22232 39214 ft 480 kts 274°
2026-05-07 18:02 41.56954 41.08880 39212 ft 482 kts 273°
2026-05-07 18:03 41.57454 40.99944 39208 ft 482 kts 273°
2026-05-07 18:03 41.57937 40.91060 39215 ft 482 kts 273°
2026-05-07 18:04 41.58415 40.82126 39213 ft 482 kts 273°
2026-05-07 18:04 41.58886 40.73195 39208 ft 482 kts 273°
2026-05-07 18:05 41.59353 40.64234 39213 ft 483 kts 273°
2026-05-07 18:05 41.59816 40.55275 39216 ft 484 kts 273°
2026-05-07 18:06 41.60267 40.46305 39211 ft 484 kts 273°
2026-05-07 18:06 41.60711 40.37381 39212 ft 484 kts 273°
2026-05-07 18:07 41.61151 40.28405 39219 ft 485 kts 273°
2026-05-07 18:07 41.61584 40.19402 39213 ft 485 kts 273°
2026-05-07 18:08 41.62010 40.10400 39210 ft 485 kts 273°
2026-05-07 18:08 41.62429 40.01400 39210 ft 486 kts 273°
2026-05-07 18:09 41.62841 39.92384 39215 ft 486 kts 273°
2026-05-07 18:09 41.63247 39.83367 39208 ft 486 kts 273°
2026-05-07 18:10 41.63646 39.74349 39208 ft 486 kts 273°
2026-05-07 18:10 41.64038 39.65326 39200 ft 486 kts 273°
2026-05-07 18:11 41.64422 39.56355 39204 ft 486 kts 273°
2026-05-07 18:11 41.64800 39.47353 39205 ft 485 kts 273°
2026-05-07 18:12 41.65167 39.38346 39203 ft 485 kts 273°
2026-05-07 18:12 41.65528 39.29342 39203 ft 485 kts 273°
2026-05-07 18:13 41.65884 39.20329 39206 ft 485 kts 273°
2026-05-07 18:13 41.66232 39.11326 39194 ft 484 kts 273°
2026-05-07 18:14 41.66570 39.02393 39200 ft 484 kts 273°
2026-05-07 18:14 41.66904 38.93400 39204 ft 484 kts 273°
2026-05-07 18:15 41.67229 38.84408 39206 ft 483 kts 273°
2026-05-07 18:15 41.67549 38.75411 39200 ft 484 kts 273°
2026-05-07 18:16 41.67863 38.66402 39195 ft 485 kts 273°
2026-05-07 18:16 41.68169 38.57388 39194 ft 485 kts 273°
2026-05-07 18:17 41.68464 38.48429 39185 ft 485 kts 273°
2026-05-07 18:17 41.68757 38.39402 39197 ft 485 kts 273°
2026-05-07 18:18 41.69043 38.30386 39200 ft 485 kts 273°
2026-05-07 18:18 41.69277 38.22820 39183 ft 486 kts 273°
2026-05-07 18:19 41.69592 38.12323 39195 ft 486 kts 273°
2026-05-07 18:19 41.69858 38.03289 39183 ft 486 kts 273°
2026-05-07 18:20 41.70115 37.94238 39183 ft 486 kts 273°
2026-05-07 18:20 41.70365 37.85181 39184 ft 487 kts 273°
2026-05-07 18:21 41.70609 37.76121 39183 ft 486 kts 273°
2026-05-07 18:21 41.70845 37.67082 39182 ft 486 kts 273°
2026-05-07 18:22 41.71074 37.58042 39197 ft 486 kts 272°
2026-05-07 18:22 41.71293 37.49061 39183 ft 485 kts 272°
2026-05-07 18:23 41.71505 37.40042 39181 ft 485 kts 272°
2026-05-07 18:23 41.71711 37.31013 39184 ft 485 kts 272°
2026-05-07 18:24 41.71910 37.21999 39183 ft 484 kts 272°
2026-05-07 18:24 41.72100 37.12999 39184 ft 484 kts 272°
2026-05-07 18:25 41.72286 37.03998 39183 ft 483 kts 272°
2026-05-07 18:25 41.72464 36.95007 39184 ft 483 kts 272°
2026-05-07 18:26 41.72634 36.86027 39183 ft 482 kts 272°
2026-05-07 18:26 41.72796 36.77045 39183 ft 482 kts 272°
2026-05-07 18:27 41.72953 36.68115 39184 ft 482 kts 272°
2026-05-07 18:27 41.73104 36.59135 39184 ft 482 kts 272°
2026-05-07 18:28 41.73222 36.51670 39177 ft 482 kts 272°
2026-05-07 18:28 41.73381 36.41164 39174 ft 482 kts 272°
2026-05-07 18:29 41.73508 36.32183 39175 ft 483 kts 272°
2026-05-07 18:29 41.73628 36.23202 39174 ft 483 kts 272°
2026-05-07 18:30 41.73745 36.14208 39174 ft 483 kts 272°
2026-05-07 18:30 41.73851 36.05268 39173 ft 483 kts 272°
2026-05-07 18:31 41.73951 35.96278 39166 ft 483 kts 272°
2026-05-07 18:31 41.74044 35.87286 39165 ft 482 kts 272°
2026-05-07 18:32 41.74132 35.78302 39165 ft 482 kts 272°
2026-05-07 18:32 41.74212 35.69320 39163 ft 482 kts 272°
2026-05-07 18:33 41.74284 35.60339 39158 ft 482 kts 272°
2026-05-07 18:33 41.74349 35.51367 39141 ft 481 kts 272°
2026-05-07 18:34 41.74407 35.42412 39139 ft 481 kts 272°
2026-05-07 18:34 41.74458 35.33457 39132 ft 480 kts 272°
2026-05-07 18:35 41.74503 35.24580 39139 ft 480 kts 272°
2026-05-07 18:35 41.74540 35.15644 39138 ft 479 kts 272°
2026-05-07 18:36 41.74571 35.06727 39143 ft 478 kts 272°
2026-05-07 18:36 41.74595 34.97825 39136 ft 478 kts 272°
2026-05-07 18:37 41.74610 34.88920 39137 ft 478 kts 272°
2026-05-07 18:37 41.74619 34.80038 39134 ft 477 kts 272°
2026-05-07 18:38 41.74623 34.71162 39146 ft 476 kts 272°
2026-05-07 18:38 41.74619 34.62354 39145 ft 476 kts 272°
2026-05-07 18:39 41.74612 34.53500 39151 ft 475 kts 272°
2026-05-07 18:39 41.74596 34.46082 39144 ft 475 kts 272°
2026-05-07 18:40 41.74564 34.35777 39150 ft 475 kts 272°
2026-05-07 18:40 41.74529 34.26919 39146 ft 475 kts 272°
2026-05-07 18:41 41.74490 34.18122 39144 ft 475 kts 272°
2026-05-07 18:41 41.74447 34.09271 39146 ft 475 kts 272°
2026-05-07 18:42 41.74394 34.00418 39146 ft 475 kts 272°
2026-05-07 18:42 41.74345 33.93044 39151 ft 475 kts 272°
2026-05-07 18:43 41.74278 33.84195 39159 ft 475 kts 272°
2026-05-07 18:43 41.74206 33.75354 39155 ft 475 kts 272°
2026-05-07 18:44 41.74128 33.66515 39156 ft 475 kts 272°
2026-05-07 18:44 41.74043 33.57722 39152 ft 474 kts 271°
2026-05-07 18:45 41.73950 33.48897 39156 ft 474 kts 272°
2026-05-07 18:45 41.73852 33.40070 39129 ft 473 kts 272°
2026-05-07 18:46 41.73749 33.31263 39128 ft 473 kts 271°
2026-05-07 18:46 41.73636 33.22464 39130 ft 472 kts 271°
2026-05-07 18:47 41.73516 33.13669 39129 ft 472 kts 271°
2026-05-07 18:47 41.73391 33.04891 39129 ft 471 kts 271°
2026-05-07 18:48 41.73276 32.96115 39129 ft 471 kts 272°
2026-05-07 18:48 41.73180 32.87348 39145 ft 471 kts 272°
2026-05-07 18:49 41.73074 32.78600 39134 ft 470 kts 272°
2026-05-07 18:49 41.72958 32.69911 39132 ft 470 kts 272°
2026-05-07 18:50 41.72828 32.61172 39141 ft 469 kts 272°
2026-05-07 18:50 41.72700 32.52445 39135 ft 469 kts 272°
2026-05-07 18:51 41.72566 32.43719 39139 ft 468 kts 272°
2026-05-07 18:51 41.72425 32.35004 39142 ft 468 kts 272°
2026-05-07 18:52 41.71659 32.26308 39131 ft 473 kts 262°
2026-05-07 18:52 41.70207 32.17715 39133 ft 474 kts 260°
2026-05-07 18:53 41.68637 32.09144 39128 ft 475 kts 259°
2026-05-07 18:53 41.67066 32.00622 39128 ft 474 kts 259°
2026-05-07 18:54 41.65494 31.92057 39128 ft 474 kts 259°
2026-05-07 18:54 41.63925 31.83512 39128 ft 473 kts 259°
2026-05-07 18:55 41.62355 31.74978 39128 ft 473 kts 259°
2026-05-07 18:55 41.60776 31.66439 39128 ft 473 kts 259°
2026-05-07 18:56 41.59191 31.57911 39133 ft 473 kts 259°
2026-05-07 18:56 41.57603 31.49403 39128 ft 472 kts 259°
2026-05-07 18:56 41.56807 31.45160 38966 ft 469 kts 259°
2026-05-07 18:57 41.56013 31.40936 38198 ft 470 kts 259°
2026-05-07 18:57 41.55373 31.36653 37411 ft 468 kts 266°
2026-05-07 18:57 41.55191 31.32348 36715 ft 461 kts 275°
2026-05-07 18:57 41.55366 31.28078 36027 ft 458 kts 278°
2026-05-07 18:58 41.55616 31.23904 35326 ft 457 kts 278°
2026-05-07 18:58 41.55883 31.19681 34556 ft 457 kts 279°
2026-05-07 18:58 41.56153 31.15442 33739 ft 459 kts 279°
2026-05-07 18:58 41.56424 31.11184 32912 ft 460 kts 279°
2026-05-07 18:59 41.56694 31.06922 32060 ft 461 kts 279°
2026-05-07 18:59 41.56963 31.02645 31180 ft 463 kts 279°
2026-05-07 18:59 41.57195 30.98346 30486 ft 462 kts 276°
2026-05-07 18:59 41.57107 30.94012 30451 ft 475 kts 270°
2026-05-07 19:00 41.56578 30.89610 30449 ft 486 kts 261°
2026-05-07 19:00 41.55525 30.85291 30281 ft 491 kts 253°
2026-05-07 19:00 41.54161 30.81098 30043 ft 493 kts 251°
2026-05-07 19:00 41.52737 30.76916 29780 ft 493 kts 251°
2026-05-07 19:01 41.51316 30.72757 29523 ft 492 kts 251°
2026-05-07 19:01 41.49898 30.68608 29279 ft 490 kts 251°
2026-05-07 19:01 41.48489 30.64478 29027 ft 489 kts 251°
2026-05-07 19:01 41.47083 30.60356 28767 ft 487 kts 251°
2026-05-07 19:02 41.45683 30.56257 28513 ft 486 kts 251°
2026-05-07 19:02 41.44302 30.52221 28291 ft 484 kts 251°
2026-05-07 19:02 41.42907 30.48146 28036 ft 482 kts 250°
2026-05-07 19:02 41.41513 30.44079 27776 ft 481 kts 250°
2026-05-07 19:03 41.40124 30.40034 27536 ft 479 kts 250°
2026-05-07 19:03 41.38738 30.36001 27276 ft 478 kts 250°
2026-05-07 19:03 41.37357 30.31987 27028 ft 476 kts 250°
2026-05-07 19:03 41.35976 30.27980 26778 ft 475 kts 250°
2026-05-07 19:04 41.34600 30.23997 26527 ft 473 kts 250°
2026-05-07 19:04 41.33224 30.20018 26279 ft 472 kts 250°
2026-05-07 19:04 41.31851 30.16052 26022 ft 471 kts 250°
2026-05-07 19:04 41.30477 30.12089 25774 ft 469 kts 250°
2026-05-07 19:05 41.29129 30.08210 25526 ft 467 kts 250°
2026-05-07 19:05 41.27768 30.04297 25213 ft 464 kts 250°
2026-05-07 19:05 41.26420 30.00429 24558 ft 459 kts 250°
2026-05-07 19:05 41.25065 29.96546 23835 ft 455 kts 250°
2026-05-07 19:06 41.23754 29.92792 23123 ft 452 kts 250°
2026-05-07 19:06 41.21124 29.85270 21668 ft 445 kts 249°
2026-05-07 19:06 41.19826 29.81567 20950 ft 441 kts 249°
2026-05-07 19:07 41.18534 29.77887 20208 ft 437 kts 249°
2026-05-07 19:07 41.17253 29.74240 19470 ft 433 kts 249°
2026-05-07 19:07 41.15983 29.70633 18729 ft 430 kts 249°
2026-05-07 19:07 41.14724 29.67059 17971 ft 426 kts 248°
2026-05-07 19:08 41.13472 29.63513 17217 ft 423 kts 248°
2026-05-07 19:08 41.12230 29.59998 16481 ft 419 kts 248°
2026-05-07 19:08 41.10997 29.56510 15718 ft 415 kts 248°
2026-05-07 19:08 41.10187 29.54221 15214 ft 413 kts 248°
2026-05-07 19:09 41.08581 29.49687 14227 ft 407 kts 247°
2026-05-07 19:09 41.07379 29.46299 13489 ft 403 kts 247°
2026-05-07 19:09 41.06189 29.42957 12748 ft 398 kts 246°
2026-05-07 19:09 41.05015 29.39654 11972 ft 395 kts 246°
2026-05-07 19:10 41.03850 29.36381 11341 ft 388 kts 246°
2026-05-07 19:10 41.02722 29.33218 11082 ft 371 kts 246°
2026-05-07 19:10 41.01646 29.30207 10811 ft 348 kts 246°
2026-05-07 19:10 41.00658 29.27448 10643 ft 315 kts 246°
2026-05-07 19:11 40.99761 29.24943 10518 ft 288 kts 246°
2026-05-07 19:11 40.98913 29.22572 10395 ft 288 kts 246°
2026-05-07 19:11 40.98057 29.20175 10271 ft 288 kts 246°
2026-05-07 19:11 40.97204 29.17792 10126 ft 287 kts 246°
2026-05-07 19:12 40.96364 29.15451 9896 ft 279 kts 246°
2026-05-07 19:12 40.95523 29.13108 9589 ft 284 kts 246°
2026-05-07 19:12 40.94681 29.10764 9356 ft 277 kts 246°
2026-05-07 19:12 40.93870 29.08511 9213 ft 265 kts 246°
2026-05-07 19:13 40.93104 29.06386 9074 ft 254 kts 246°
2026-05-07 19:13 40.92354 29.04306 8853 ft 248 kts 246°
2026-05-07 19:13 40.91658 29.02240 8591 ft 245 kts 252°
2026-05-07 19:13 40.91442 29.00037 8356 ft 242 kts 277°
2026-05-07 19:14 40.91818 28.97884 8089 ft 240 kts 287°
2026-05-07 19:14 40.92323 28.95779 7820 ft 240 kts 288°
2026-05-07 19:14 40.92834 28.93683 7565 ft 239 kts 288°
2026-05-07 19:14 40.93308 28.91578 7412 ft 243 kts 282°
2026-05-07 19:15 40.93500 28.89257 7360 ft 258 kts 272°
2026-05-07 19:15 40.93482 28.86881 6872 ft 261 kts 267°
2026-05-07 19:15 40.93329 28.84461 6428 ft 267 kts 264°
2026-05-07 19:15 40.93111 28.82083 6305 ft 254 kts 263°
2026-05-07 19:16 40.92961 28.79822 6201 ft 239 kts 272°
2026-05-07 19:16 40.93315 28.77743 6103 ft 226 kts 295°
2026-05-07 19:16 40.94251 28.76186 6012 ft 215 kts 320°
2026-05-07 19:16 40.95452 28.75076 5904 ft 206 kts 326°
2026-05-07 19:17 40.96640 28.74130 5830 ft 193 kts 329°
2026-05-07 19:17 40.97870 28.73583 5730 ft 183 kts 349°
2026-05-07 19:17 40.99131 28.73440 5618 ft 181 kts 355°
2026-05-07 19:17 41.00392 28.73384 5406 ft 180 kts 355°
2026-05-07 19:18 41.01628 28.73346 5177 ft 176 kts 356°
2026-05-07 19:18 41.02853 28.73318 4919 ft 177 kts 356°
2026-05-07 19:18 41.04082 28.73288 4633 ft 176 kts 357°
2026-05-07 19:18 41.05297 28.73260 4367 ft 174 kts 357°
2026-05-07 19:19 41.06498 28.73232 4152 ft 171 kts 357°
2026-05-07 19:19 41.07684 28.73204 3928 ft 170 kts 357°
2026-05-07 19:19 41.08861 28.73178 3711 ft 168 kts 358°
2026-05-07 19:19 41.10018 28.73151 3477 ft 164 kts 358°
2026-05-07 19:20 41.11137 28.73125 3249 ft 156 kts 358°
2026-05-07 19:20 41.12186 28.73100 3049 ft 146 kts 358°
2026-05-07 19:20 41.13192 28.73077 2872 ft 144 kts 358°
2026-05-07 19:20 41.14185 28.73055 2684 ft 143 kts 358°
2026-05-07 19:21 41.15180 28.73031 2494 ft 143 kts 357°
2026-05-07 19:21 41.16165 28.73009 2319 ft 141 kts 357°
2026-05-07 19:21 41.17122 28.72986 2125 ft 140 kts 356°
2026-05-07 19:21 41.17642 28.72973 2017 ft 139 kts 357°
2026-05-07 19:22 41.18280 28.72960 1909 ft 139 kts 357°
2026-05-07 19:22 41.19240 28.72939 1717 ft 137 kts 356°
2026-05-07 19:22 41.20175 28.72916 1537 ft 135 kts 356°
2026-05-07 19:22 41.21114 28.72895 1368 ft 135 kts 356°
2026-05-07 19:23 41.22053 28.72874 1184 ft 137 kts 356°
2026-05-07 19:23 41.22994 28.72849 980 ft 131 kts 355°
2026-05-07 19:23 41.23916 28.72814 792 ft 134 kts 356°
2026-05-07 19:23 41.24862 28.72791 641 ft 137 kts 356°
2026-05-07 19:24 41.25828 28.72777 472 ft 138 kts 357°
2026-05-07 19:24 41.26780 28.72756 349 ft 133 kts 356°
2026-05-07 19:24 41.27586 28.72739 340 ft 84 kts 360°
2026-05-07 19:24 41.27887 28.72743 336 ft 17 kts 10°
2026-05-07 19:25 41.28004 28.72790 337 ft 19 kts 21°
2026-05-07 19:25 41.28121 28.72870 340 ft 20 kts 47°
2026-05-07 19:25 41.28135 28.72959 340 ft 4 kts 117°
2026-05-07 19:25 41.28115 28.72968 338 ft 3 kts 181°
2026-05-07 19:26 41.28082 28.72967 338 ft 7 kts 181°
2026-05-07 19:26 41.28023 28.72965 335 ft 10 kts 181°
2026-05-07 19:26 41.27953 28.72965 339 ft 11 kts 180°
2026-05-07 19:26 41.27864 28.72965 340 ft 14 kts 180°
2026-05-07 19:27 41.27821 28.72964 339 ft 0 kts 180°
2026-05-07 19:29 41.27777 28.72964 336 ft 15 kts 180°
2026-05-07 19:30 41.27682 28.72968 338 ft 24 kts 178°
2026-05-07 19:30 41.27499 28.72976 336 ft 27 kts 179°
2026-05-07 19:30 41.27306 28.72980 336 ft 26 kts 178°
2026-05-07 19:30 41.27130 28.72985 336 ft 26 kts 179°
2026-05-07 19:31 41.26954 28.72990 335 ft 20 kts 179°
2026-05-07 19:31 41.26876 28.73018 335 ft 11 kts 125°
2026-05-07 19:31 41.26862 28.73131 340 ft 14 kts 90°
2026-05-07 19:31 41.26867 28.73261 338 ft 15 kts 88°
2026-05-07 19:32 41.26870 28.73404 336 ft 16 kts 89°
2026-05-07 19:32 41.26871 28.73487 340 ft 0 kts 88°
2026-05-07 19:32 41.26869 28.73513 335 ft 5 kts 107°
2026-05-07 19:32 41.26836 28.73529 340 ft 8 kts 179°
2026-05-07 19:33 41.26832 28.73529 338 ft 0 kts 179°
2026-05-07 19:33 41.26807 28.73529 338 ft 4 kts 181°
2026-05-07 19:33 41.26787 28.73529 340 ft 0 kts 180°